Showing default

GGSE 2, 1244

Orbit data source: Space-Track

GGSE 2, 1244 is an American payload satellite in LEO that was launched on Tue, 09 Mar 1965 UTC via a THOR SLV-2 AGENA D launch vehicle from the Air Force Western Test Range (AFWTR). Payload-class satellites include a variety of spacecraft equipped with specific instruments for various scientific and technological missions. These include communications satellites like Starlink; space stations such as the ISS; scientific satellites like the Hubble; Earth observation satellites from companies like Planet Labs, Umbra, and HawkEye 360; GPS; miniature CubeSats for education and research; and military/defense satellites.

Loading next visibility...
Identifier
1244, 1965-016B
Orbit
LEO
Country
Flag of USUS
Related business
Manufacturer
NRL
Mission
Defense Technology
Bus & Motor
NRL 24", Unknown motor
Mass
55 kg wet, 55 kg dry
Launch date (UTC)
1965-03-09 (61 years ago)
Launch vehicle
THOR SLV-2 AGENA D
Launch site
Air Force Western Test Range (AFWTR)
Object type
Payload
Rocket body
Debris
Shape & HBR
Sphere + 1 Ant, 1.9 m
Radar Cross Section
0.380 m², Medium (>0.1 m² and < 1m²)

Expand to show TLE details & history
Last TLE update: 17 hours ago

TLE from 17 hours ago
0 GGSE 2
1 01244U 65016B   25259.59633535  .00000023  00000-0  54971-4 0  9996
2 01244  70.0793  49.1035 0018206  87.8047 272.5144 13.96094334 79870
Epoch: 2025-09-16T14:18Z
TLE epoch observation values (Epoch: 2025-09-16T14:18:43.374Z)
Latitude
0.00002°
Longitude
-161.36159°
Altitude
909.111 km
Speed
7.398 km/s
True Right ascension
03h 16m 24s
True Declination
0° 00' 00"
Sunlit
Object was in full shadow at epoch
Visualization orbit readout
Latitude
Unknown
Longitude
Unknown
Altitude
Unknown
Speed
Unknown
Apparent Right ascension
Unknown
Apparent Declination
Unknown
Sunlit
N/A
Visualization observer readout
Local Sidereal Time
23:45:23
Azimuth
Unknown
Elevation
Unknown
Doppler factor
Unknown
Orbital elements
Apogee altitude
918.647 km
Perigee altitude
892.126 km
Semi-major axis
7,283.523 km
Eccentricity
0.00182
Inclination
70.0793°
RAAN
49.1035°
Arg. of periapsis
87.8047°
True anomaly
272.30596°
Mean anomaly
272.5144°
Eccentric anomaly
272.41018°
Mean motion
3.49165 °/min
Orbital period
103.1 mins
BSTAR
0.000054971
Loading maneuver chart data...
Computing Atmospheric mass density...
Loading historical data...
Loading historical data...
Loading historical data...
Loading historical data...
Loading historical data...
Loading historical data...
Loading historical data...

Documentation

Showing up to 5 results
|